Flight Track Log - Related Links

Times and Time Zones

All times are in EDT time to prevent confusion due to time zone crossing. See the ASQ4209 flight status page for this flight to view local times or setup timezone preferences in your user account.

Time Position Orientation Groundspeed Altitude Reporting Facility
EDT Latitude Longitude Course Direction KTS MPH feet Rate Location/Type
Mon 02:43:24 PM 30.4783 -91.2128 228° Southwest 202 232 3,000  Level Houston Center
Mon 02:44:26 PM 30.4275 -91.2642 221° Southwest 226 260 5,100 2,177 Climbing Houston Center
Mon 02:45:00 PM 30.4626 -91.5038 263° West  Level FlightAware Approximate
Mon 02:45:28 PM 30.3758 -91.3211 224° Southwest 249 287 7,500  Level Houston Center
Mon 02:46:00 PM 30.4518 -91.6006 263° West  Level FlightAware Approximate
Mon 02:46:30 PM 30.3225 -91.4025 233° Southwest 267 307 10,000  Level Houston Center
Mon 02:47:00 PM 30.4264 -91.6920 227° Southwest  Level FlightAware Approximate
Mon 02:47:32 PM 30.2775 -91.4892 239° Southwest 307 353 10,700  Level Houston Center
Mon 02:48:34 PM 30.2331 -91.5842 242° Southwest 332 382 12,200 1,440 Climbing Houston Center
Mon 02:49:37 PM 30.1858 -91.6794 240° Southwest 341 392 13,700 1,344 Climbing Houston Center
Mon 02:50:39 PM 30.1392 -91.7719 240° Southwest 342 394 15,000 1,306 Climbing Houston Center
Mon 02:51:41 PM 30.0806 -91.8886 240° Southwest 348 400 16,400 1,258 Climbing Houston Center
Mon 02:52:43 PM 30.0314 -91.9878 240° Southwest 355 409 17,600 1,016 Climbing Houston Center
Mon 02:53:45 PM 29.9828 -92.0867 240° Southwest 355 409 18,500 919 Climbing Houston Center
Mon 02:54:47 PM 29.9319 -92.1894 240° Southwest 364 419 19,500 726 Climbing Houston Center
Mon 02:55:49 PM 29.8794 -92.2950 240° Southwest 376 433 20,000 240 Climbing Houston Center
Mon 02:56:52 PM 29.8239 -92.4069 240° Southwest 397 457 20,000  Level Houston Center
Mon 02:57:54 PM 29.7539 -92.5456 240° Southwest 413 475 20,000  Level Houston Center
Mon 02:58:56 PM 29.6958 -92.6614 240° Southwest 417 480 20,000  Level Houston Center
Mon 02:59:58 PM 29.6375 -92.7744 239° Southwest 413 475 20,000  Level Houston Center
Mon 03:01:00 PM 29.5819 -92.8861 240° Southwest 405 466 20,000  Level Houston Center
Mon 03:02:02 PM 29.5247 -92.9972 239° Southwest 402 463 20,000  Level Houston Center
Mon 03:03:04 PM 29.4872 -93.1186 250° West 411 473 20,000  Level Houston Center
Mon 03:04:07 PM 29.4931 -93.2725 273° West 405 466 20,000  Level Houston Center
Mon 03:05:09 PM 29.4975 -93.3983 272° West 399 459 20,000  Level Houston Center
Mon 03:06:11 PM 29.5031 -93.5278 273° West 403 464 20,000  Level Houston Center
Mon 03:07:13 PM 29.5081 -93.6581 273° West 406 467 20,000  Level Houston Center
Mon 03:08:15 PM 29.5131 -93.7897 273° West 413 475 20,000 -242 Level Houston Center
Mon 03:09:17 PM 29.5183 -93.9231 273° West 416 479 19,500 -1,258 Descending Houston Center
Mon 03:10:19 PM 29.5231 -94.0519 272° West 406 467 17,400 -2,296 Descending Houston Center
Mon 03:10:38 PM 29.5258 -94.1131 273° West 396 456 16,400 -2,381 Descending Houston Center
Mon 03:11:22 PM 29.5281 -94.1958 272° West 387 445 14,900 -2,149 Descending Houston Center
Mon 03:11:45 PM 29.5289 -94.2497 271° West 378 435 14,000 -1,645 Descending Houston Center
Mon 03:12:24 PM 29.5325 -94.3117 274° West 368 423 13,200 -1,180 Descending Houston Center
Mon 03:12:46 PM 29.5403 -94.3636 280° West 336 387 12,800 -968 Descending Houston Center
Mon 03:13:26 PM 29.5611 -94.4083 298° West 330 380 12,200 -1,574 Descending Houston Center
Mon 03:13:47 PM 29.5786 -94.4522 295° West 305 351 11,200 -1,742 Descending Houston Center
Mon 03:14:28 PM 29.5975 -94.4939 298° West 301 346 10,400 -1,742 Descending Houston Center
Mon 03:14:49 PM 29.6261 -94.5303 312° West 294 338 9,400 -2,129 Descending Houston Center
Mon 03:15:30 PM 29.6644 -94.5717 317° Northwest 286 329 8,200 -1,770 Descending Houston Center
Mon 03:15:50 PM 29.6847 -94.5925 318° Northwest 278 320 7,600 -1,548 Descending Houston Center
Mon 03:16:32 PM 29.7181 -94.6303 315° West 270 311 6,600 -1,377 Descending Houston Center
Mon 03:16:51 PM 29.7369 -94.6533 313° West 258 297 6,200 -774 Descending Houston Center
Mon 03:17:34 PM 29.7706 -94.6883 318° Northwest 263 303 5,800 -689 Descending Houston Center
Mon 03:17:52 PM 29.7886 -94.7094 315° West 261 300 5,500 -952 Descending Houston Center
Mon 03:18:37 PM 29.8228 -94.7453 318° Northwest 262 302 4,800 -1,082 Descending Houston Center
Mon 03:18:53 PM 29.8425 -94.7678 315° West 261 300 4,400 -968 Descending Houston Center
Mon 03:19:39 PM 29.8758 -94.8019 318° Northwest 262 302 3,800 -984 Descending Houston Center
Mon 03:19:54 PM 29.8964 -94.8258 315° West 251 289 3,400 -774 Descending Houston Center
Mon 03:20:41 PM 29.9278 -94.8736 307° West 250 288 3,000 -387 Descending Houston Center
Mon 03:20:56 PM 29.9361 -94.8886 303° West 221 254 3,000 97 Level Houston Center
Mon 03:21:43 PM 29.9622 -94.9319 305° West 230 265 3,100 -393 Climbing Houston Center
Mon 03:22:58 PM 29.9778 -95.0183 282° West 221 254 2,200 -484 Descending Houston Center
Mon 03:23:47 PM 29.9778 -95.0681 270° West 222 255 2,100 -54 Descending Houston Center
Mon 03:24:50 PM 29.9781 -95.1389 270° West 222 255 2,100  Level Houston Center

Login

Don't have an account? Register now (free) for customized features, flight alerts, and more!